Location: Quaker Farms
(41.4276°N, 73.1557°W)
Time: 02:31:10
(UTC+00:00)

SR - Visible Passes

Search period start: 13 June 2021 00:00
Search period end: 23 June 2021 00:00
Orbit: 574 x 881 km, 66.7° (Epoch: 12 June)

Date Brightness Start Highest point End Pass type
(mag) Time Alt. Az. Time Alt. Az. Time Alt. Az.
13 Jun ? 06:01:53 10° N 06:04:32 14° NE 06:07:05 10° ENE visible
13 Jun ? 07:42:25 10° NNW 07:47:45 69° ENE 07:52:34 10° SE visible
14 Jun ? 06:52:48 10° NNW 06:57:45 36° NE 07:02:16 10° ESE visible
14 Jun ? 08:35:12 10° NW 08:39:41 30° WSW 08:43:49 10° S visible
15 Jun ? 06:03:29 10° N 06:07:31 21° NE 06:11:17 10° E visible
15 Jun ? 07:44:56 10° NW 07:50:08 63° WSW 07:54:50 10° SSE visible
16 Jun ? 05:14:42 10° N 05:17:04 13° NE 05:19:22 10° ENE visible
16 Jun ? 06:55:04 10° NNW 07:00:21 65° ENE 07:05:07 10° SE visible
16 Jun ? 08:38:47 10° WNW 08:41:41 15° WSW 08:44:26 10° SW visible
17 Jun ? 06:05:30 10° NNW 06:10:19 34° NE 06:14:45 10° ESE visible
17 Jun ? 07:47:45 10° NW 07:52:19 32° WSW 07:55:35 15° SSW visible
18 Jun ? 05:16:12 10° N 05:20:05 20° NE 05:23:42 10° E visible
18 Jun ? 06:57:33 10° NW 07:02:45 68° WSW 07:05:28 25° SSE visible
19 Jun ? 04:27:34 10° NNE 04:29:36 12° NE 04:31:35 10° ENE visible
19 Jun ? 06:07:43 10° NNW 06:12:57 60° ENE 06:15:41 25° SE visible
19 Jun ? 07:51:15 10° WNW 07:54:20 16° WSW 07:55:00 16° WSW visible
20 Jun ? 05:18:10 10° NNW 05:22:54 32° NE 05:26:08 16° ESE visible
20 Jun ? 07:00:20 10° NW 07:04:57 34° WSW 07:05:28 33° WSW visible
21 Jun ? 04:28:56 10° N 04:32:37 19° NE 04:36:05 10° E visible
21 Jun ? 06:10:10 10° NNW 06:15:22 73° WSW 06:16:06 61° S visible
22 Jun ? 03:40:29 10° NNE 03:42:07 11° NNE 03:43:44 10° NE visible
22 Jun ? 05:20:22 10° NNW 05:25:32 56° NE 05:26:51 42° ESE visible
22 Jun ? 07:03:43 10° WNW 07:06:12 17° W 07:06:12 17° W visible
